Louisburg, NC

10:29 PM EDT on August 19, 2017 (GMT -0400)
Franklin County

Weather History for KLHZ - November, 2012

Change the Weather History Date:

Tuesday, November 13, 2012

  Actual Average (KRDU) Record (KRDU)
Temperature  
Mean Temperature - -  
Max Temperature - 60 °F 80 °F (1955)
Min Temperature - 36 °F 23 °F (1976)
Moisture  
Dew Point -    
Average Humidity    
Maximum Humidity    
Minimum Humidity    
Precipitation  
Precipitation 0.14 in - - ()
Sea Level Pressure  
Sea Level Pressure 30.31 in    
Wind  
Wind Speed 6 mph (North)    
Max Wind Speed 10 mph    
Max Gust Speed 18 mph    
Visibility 9 miles    
Events Rain    
Averages and records for this station are not official NWS values.
T = Trace of Precipitation, MM = Missing Value Source: NWS Daily Summary

Daily Weather History Graph

Daily Weather History Graph

Search for Another Location

Airport or City:

Trip Planner

Search our weather history database for the weather conditions in past years. The results will help you decide how hot, cold, wet, or windy it might be!

Date:

Astronomy

Nov. 13, 2012 Rise Set
Actual Time 6:48 AM EST 5:06 PM EST
Civil Twilight 6:21 AM EST 5:33 PM EST
Nautical Twilight 5:50 AM EST 6:04 PM EST
Astronomical Twilight 5:19 AM EST 6:35 PM EST
Moon 6:23 AM EST (11/13) 4:59 PM EST (11/13)
Length of Visible Light 11h 12m
Length of Day
10h 18m
Waning Crescent, 0% of the Moon is Illuminated
Nov 13
Waning Crescent
Nov 13
New
Nov 20
First Quarter
Nov 28
Full
Dec 6
Last Quarter

Hourly Weather History & Observations

Time (EST) Temp. Dew Point Humidity Pressure Visibility Wind Dir Wind Speed Gust Speed Precip Events Conditions
12:15 AM - - N/A% 30.21 in 10.0 mi South 4.6 mph - N/A   Clear
12:35 AM - - N/A% 30.20 in 10.0 mi South 4.6 mph - N/A   Scattered Clouds
12:55 AM - - N/A% 30.19 in 7.0 mi SSE 5.8 mph - N/A   Clear
1:15 AM - - N/A% 30.19 in 7.0 mi South 5.8 mph - N/A   Scattered Clouds
1:35 AM - - N/A% 30.18 in 10.0 mi South 5.8 mph - N/A   Overcast
1:55 AM - - N/A% 30.18 in 10.0 mi South 5.8 mph - N/A   Overcast
2:15 AM - - N/A% 30.18 in 10.0 mi South 5.8 mph - N/A   Overcast
2:35 AM - - N/A% 30.18 in 7.0 mi SSW 3.5 mph - N/A   Overcast
2:55 AM - - N/A% 30.17 in 10.0 mi South 4.6 mph - N/A   Overcast
3:15 AM - - N/A% 30.17 in 10.0 mi South 4.6 mph - N/A   Overcast
3:35 AM - - N/A% 30.17 in 10.0 mi South 4.6 mph - N/A   Overcast
3:55 AM - - N/A% 30.17 in 7.0 mi Calm Calm - N/A   Overcast
4:15 AM - - N/A% 30.17 in 7.0 mi South 4.6 mph - N/A   Overcast
4:35 AM - - N/A% 30.17 in 7.0 mi SSW 4.6 mph - N/A   Overcast
4:55 AM - - N/A% 30.19 in 10.0 mi NW 9.2 mph - N/A   Overcast
5:15 AM - - N/A% 30.22 in 10.0 mi NW 8.1 mph 18.4 mph N/A   Overcast
5:35 AM - - N/A% 30.23 in 10.0 mi NW 8.1 mph - N/A   Overcast
5:55 AM - - N/A% 30.24 in 10.0 mi NNW 4.6 mph - N/A   Overcast
6:15 AM - - N/A% 30.24 in 10.0 mi NNW 8.1 mph - N/A   Overcast
6:35 AM - - N/A% 30.25 in 10.0 mi NW 8.1 mph - N/A   Overcast
6:55 AM - - N/A% 30.27 in 10.0 mi NNW 3.5 mph - N/A   Overcast
7:15 AM - - N/A% 30.27 in 10.0 mi NW 6.9 mph - N/A   Overcast
7:35 AM - - N/A% 30.28 in 10.0 mi NW 4.6 mph - N/A   Overcast
7:55 AM - - N/A% 30.30 in 10.0 mi NW 5.8 mph - N/A   Overcast
8:15 AM - - N/A% 30.30 in 10.0 mi NNW 5.8 mph - N/A   Overcast
8:35 AM - - N/A% 30.31 in 10.0 mi NNW 6.9 mph - N/A   Overcast
8:55 AM - - N/A% 30.32 in 10.0 mi NNW 6.9 mph - N/A   Overcast
9:15 AM - - N/A% 30.33 in 7.0 mi NNW 3.5 mph - N/A   Overcast
9:35 AM - - N/A% 30.33 in 10.0 mi North 9.2 mph - N/A Rain Light Rain
9:55 AM - - N/A% 30.34 in 5.0 mi NNW 3.5 mph - 0.01 in Rain Light Rain
10:15 AM - - N/A% 30.34 in 5.0 mi Calm Calm - N/A   Light Drizzle
10:35 AM - - N/A% 30.34 in 4.0 mi NW 4.6 mph - 0.01 in Rain Light Rain
10:55 AM - - N/A% 30.32 in 5.0 mi North 10.4 mph - 0.02 in Rain Light Rain
11:15 AM - - N/A% 30.33 in 5.0 mi North 4.6 mph - N/A   Haze
11:35 AM - - N/A% 30.32 in 7.0 mi North 6.9 mph - N/A Rain Light Rain
11:55 AM - - N/A% 30.31 in 10.0 mi NNE 8.1 mph - N/A   Overcast
12:15 PM - - N/A% 30.32 in 10.0 mi North 6.9 mph - N/A Rain Rain
12:35 PM - - N/A% 30.32 in 5.0 mi NNE 9.2 mph - 0.02 in Rain Light Rain
12:55 PM - - N/A% 30.32 in 7.0 mi NNE 8.1 mph - 0.04 in Rain Light Rain
1:15 PM - - N/A% 30.32 in 7.0 mi North 9.2 mph - 0.02 in Rain Rain
1:55 PM - - N/A% 30.31 in 5.0 mi NNE 8.1 mph - 0.04 in   Light Drizzle
2:15 PM - - N/A% 30.32 in 5.0 mi North 4.6 mph - N/A   Light Drizzle
2:35 PM - - N/A% 30.32 in 7.0 mi NE 8.1 mph - 0.01 in Rain Rain
2:55 PM - - N/A% 30.32 in 5.0 mi NNE 8.1 mph - 0.02 in   Drizzle
3:15 PM - - N/A% 30.33 in 5.0 mi NNE 8.1 mph - 0.01 in   Drizzle
3:35 PM - - N/A% 30.33 in 7.0 mi North 5.8 mph - 0.01 in   Overcast
3:55 PM - - N/A% 30.33 in 10.0 mi North 5.8 mph - 0.01 in   Overcast
4:15 PM - - N/A% 30.34 in 10.0 mi NNE 8.1 mph - N/A   Overcast
4:35 PM - - N/A% 30.34 in 10.0 mi NNE 9.2 mph - N/A   Overcast
4:55 PM - - N/A% 30.35 in 10.0 mi NNE 9.2 mph - N/A   Overcast
5:15 PM - - N/A% 30.36 in 10.0 mi NNE 6.9 mph - N/A   Overcast
5:35 PM - - N/A% 30.36 in 10.0 mi North 6.9 mph - N/A   Overcast
5:55 PM - - N/A% 30.36 in 10.0 mi North 5.8 mph - N/A   Overcast
6:15 PM - - N/A% 30.37 in 10.0 mi North 6.9 mph - N/A   Overcast
6:35 PM - - N/A% 30.37 in 10.0 mi NNE 5.8 mph - N/A   Overcast
6:55 PM - - N/A% 30.38 in 10.0 mi NNE 4.6 mph - N/A   Overcast
7:15 PM - - N/A% 30.38 in 10.0 mi NNE 3.5 mph - N/A   Overcast
7:35 PM - - N/A% 30.39 in 10.0 mi North 3.5 mph - N/A   Overcast
7:55 PM - - N/A% 30.40 in 10.0 mi NNE 4.6 mph - N/A   Overcast
8:15 PM - - N/A% 30.40 in 10.0 mi NNE 5.8 mph - N/A   Overcast
8:35 PM - - N/A% 30.41 in 10.0 mi NNE 4.6 mph - N/A   Overcast
8:55 PM - - N/A% 30.41 in 10.0 mi NNE 4.6 mph - N/A   Overcast
9:15 PM - - N/A% 30.41 in 10.0 mi NNE 4.6 mph - N/A   Overcast
9:35 PM - - N/A% 30.42 in 10.0 mi NE 5.8 mph - N/A   Overcast
9:55 PM - - N/A% 30.42 in 10.0 mi NNE 6.9 mph - N/A   Overcast
10:15 PM - - N/A% 30.42 in 10.0 mi NNE 5.8 mph - N/A   Overcast
10:35 PM - - N/A% 30.42 in 10.0 mi NNE 5.8 mph - N/A   Overcast
10:55 PM - - N/A% 30.42 in 10.0 mi North 6.9 mph - N/A   Overcast
11:15 PM - - N/A% 30.42 in 10.0 mi North 5.8 mph - N/A   Overcast
11:35 PM - - N/A% 30.42 in 10.0 mi NNE 5.8 mph - N/A   Overcast
11:55 PM - - N/A% 30.42 in 10.0 mi North 6.9 mph - N/A   Overcast